| time (UTC) | temp F | wind direction | speed knots | gust knots | rain 1hr in | rain 24hr in | rain mn in | humidity % | barometer mb |
| 20260904115510 | 65 | 258 | 0.0 | 0.0 | 0.00 | 0.00 | 0.00 | 80 | 1011.2 |
| 20260904115010 | 65 | 253 | 0.0 | 0.9 | 0.00 | 0.00 | 0.00 | 80 | 1011.1 |
| 20260904114512 | 65 | 284 | 0.0 | 2.6 | 0.00 | 0.00 | 0.00 | 79 | 1011.1 |
| 20260904114010 | 65 | 327 | 0.9 | 2.6 | 0.00 | 0.00 | 0.00 | 79 | 1011.0 |
| 20260904113509 | 65 | 291 | 0.0 | 0.0 | 0.00 | 0.00 | 0.00 | 80 | 1011.1 |
| 20260904113010 | 65 | 259 | 0.0 | 0.0 | 0.00 | 0.00 | 0.00 | 81 | 1011.2 |
| 20260904112510 | 65 | 258 | 0.0 | 0.0 | 0.00 | 0.00 | 0.00 | 81 | 1011.2 |
| 20260904112009 | 66 | 260 | 0.0 | 0.0 | 0.00 | 0.00 | 0.00 | 80 | 1011.1 |
| 20260904111509 | 66 | 247 | 0.0 | 0.0 | 0.00 | 0.00 | 0.00 | 80 | 1011.2 |
| 20260904111009 | 66 | 251 | 0.0 | 0.9 | 0.00 | 0.00 | 0.00 | 80 | 1011.2 |
| 20260904110509 | 66 | 263 | 0.0 | 1.7 | 0.00 | 0.00 | 0.00 | 81 | 1011.2 |
| 20260904110009 | 66 | 248 | 0.0 | 2.6 | 0.00 | 0.00 | 0.00 | 81 | 1011.1 |
| 20260904105508 | 66 | 261 | 0.9 | 2.6 | 0.00 | 0.00 | 0.00 | 81 | 1011.2 |
| 20260904105009 | 66 | 259 | 0.0 | 0.0 | 0.00 | 0.00 | 0.00 | 82 | 1011.1 |
| 20260904104512 | 66 | 275 | 0.0 | 0.0 | 0.00 | 0.00 | 0.00 | 82 | 1011.0 |
| 20260904104008 | 66 | 258 | 0.0 | 0.0 | 0.00 | 0.00 | 0.00 | 82 | 1011.1 |
| 20260904103732 | 66 | 251 | 0.0 | 0.0 | 0.00 | 0.00 | 0.00 | 82 | 1011.1 |
| 20260904103010 | 66 | 251 | 0.0 | 1.7 | 0.00 | 0.00 | 0.00 | 82 | 1011.0 |
| 20260904102509 | 66 | 264 | 0.0 | 1.7 | 0.00 | 0.00 | 0.00 | 82 | 1011.1 |
| 20260904102007 | 66 | 261 | 0.0 | 0.0 | 0.00 | 0.00 | 0.00 | 82 | 1011.0 |
| 20260904101508 | 66 | 260 | 0.0 | 0.0 | 0.00 | 0.00 | 0.00 | 82 | 1011.0 |
| 20260904101007 | 66 | 257 | 0.0 | 0.0 | 0.00 | 0.00 | 0.00 | 82 | 1010.9 |
| 20260904100506 | 66 | 257 | 0.0 | 0.0 | 0.00 | 0.00 | 0.00 | 82 | 1011.0 |
| 20260904100036 | 65 | 249 | 0.0 | 0.0 | 0.00 | 0.00 | 0.00 | 82 | 1011.0 |
| 20260904095537 | 65 | 281 | 0.0 | 0.0 | 0.00 | 0.00 | 0.00 | 82 | 1011.0 |
| 20260904095037 | 65 | 264 | 0.0 | 0.0 | 0.00 | 0.00 | 0.00 | 82 | 1010.9 |
| 20260904094538 | 65 | 281 | 0.0 | 0.0 | 0.00 | 0.00 | 0.00 | 82 | 1010.9 |
| 20260904094036 | 65 | 268 | 0.0 | 0.0 | 0.00 | 0.00 | 0.00 | 82 | 1011.0 |
| 20260904093536 | 65 | 289 | 0.0 | 0.0 | 0.00 | 0.00 | 0.00 | 83 | 1010.9 |
| 20260904093035 | 65 | 267 | 0.0 | 0.0 | 0.00 | 0.00 | 0.00 | 83 | 1010.9 |
| 20260904092537 | 65 | 261 | 0.0 | 0.0 | 0.00 | 0.00 | 0.00 | 83 | 1011.0 |
| 20260904092255 | 65 | 268 | 0.0 | 0.0 | 0.00 | 0.00 | 0.00 | 82 | 1011.0 |
| 20260904091536 | 65 | 301 | 0.0 | 0.0 | 0.00 | 0.00 | 0.00 | 83 | 1011.0 |
| 20260904091254 | 65 | 281 | 0.0 | 0.0 | 0.00 | 0.00 | 0.00 | 83 | 1010.9 |
| 20260904090537 | 65 | 264 | 0.0 | 0.0 | 0.00 | 0.00 | 0.00 | 83 | 1011.0 |
| 20260904090037 | 65 | 254 | 0.0 | 0.0 | 0.00 | 0.00 | 0.00 | 83 | 1011.0 |
| 20260904085751 | 65 | 253 | 0.0 | 0.0 | 0.00 | 0.00 | 0.00 | 83 | 1011.0 |
| 20260904085035 | 65 | 251 | 0.0 | 0.0 | 0.00 | 0.00 | 0.00 | 84 | 1011.0 |
| 20260904084537 | 65 | 253 | 0.0 | 0.0 | 0.00 | 0.00 | 0.00 | 84 | 1011.0 |
| 20260904084036 | 65 | 260 | 0.0 | 0.0 | 0.00 | 0.00 | 0.00 | 84 | 1011.1 |
| 20260904083535 | 65 | 266 | 0.0 | 0.0 | 0.00 | 0.00 | 0.00 | 84 | 1011.2 |
| 20260904083034 | 65 | 252 | 0.0 | 0.0 | 0.00 | 0.00 | 0.00 | 85 | 1011.1 |
| 20260904082805 | 65 | 255 | 0.0 | 0.0 | 0.00 | 0.00 | 0.00 | 85 | 1011.1 |
| 20260904082257 | 65 | 271 | 0.0 | 0.0 | 0.00 | 0.00 | 0.00 | 85 | 1011.2 |
| 20260904081535 | 65 | 258 | 0.0 | 0.0 | 0.00 | 0.00 | 0.00 | 86 | 1011.2 |
| 20260904081034 | 65 | 256 | 0.0 | 0.0 | 0.00 | 0.00 | 0.00 | 86 | 1011.2 |
| 20260904080536 | 65 | 256 | 0.0 | 0.0 | 0.00 | 0.00 | 0.00 | 86 | 1011.3 |
| 20260904080035 | 65 | 255 | 0.0 | 0.0 | 0.00 | 0.00 | 0.00 | 86 | 1011.3 |
| 20260904075534 | 65 | 246 | 0.0 | 0.0 | 0.00 | 0.00 | 0.00 | 86 | 1011.4 |
| 20260904075033 | 65 | 245 | 0.0 | 0.0 | 0.00 | 0.00 | 0.00 | 86 | 1011.3 |
| 20260904074535 | 65 | 245 | 0.0 | 0.0 | 0.00 | 0.00 | 0.00 | 86 | 1011.4 |
| 20260904074035 | 65 | 248 | 0.0 | 0.0 | 0.00 | 0.00 | 0.00 | 87 | 1011.4 |
| 20260904073533 | 65 | 265 | 0.0 | 0.0 | 0.00 | 0.00 | 0.00 | 86 | 1011.4 |
| 20260904073034 | 65 | 259 | 0.0 | 0.0 | 0.00 | 0.00 | 0.00 | 86 | 1011.4 |
| 20260904072535 | 65 | 259 | 0.0 | 0.0 | 0.00 | 0.00 | 0.00 | 86 | 1011.4 |
| 20260904072035 | 65 | 259 | 0.0 | 0.0 | 0.00 | 0.00 | 0.00 | 86 | 1011.4 |
| 20260904071533 | 65 | 259 | 0.0 | 0.0 | 0.00 | 0.00 | 0.00 | 85 | 1011.4 |
| 20260904071033 | 65 | 260 | 0.0 | 0.0 | 0.00 | 0.00 | 0.00 | 85 | 1011.4 |
| 20260904070750 | 65 | 269 | 0.0 | 0.9 | 0.00 | 0.00 | 0.00 | 85 | 1011.4 |
| 20260904070035 | 65 | 258 | 0.0 | 1.7 | 0.00 | 0.00 | 0.00 | 85 | 1011.4 |
| 20260904065532 | 65 | 259 | 0.0 | 1.7 | 0.00 | 0.00 | 0.00 | 85 | 1011.4 |
| 20260904065254 | 65 | 256 | 0.0 | 2.6 | 0.00 | 0.00 | 0.00 | 85 | 1011.4 |
| 20260904064533 | 65 | 276 | 0.9 | 2.6 | 0.00 | 0.00 | 0.00 | 85 | 1011.4 |
| 20260904064033 | 65 | 301 | 2.6 | 4.3 | 0.00 | 0.00 | 0.00 | 85 | 1011.3 |
| 20260904063532 | 65 | 280 | 3.5 | 4.3 | 0.00 | 0.00 | 0.00 | 85 | 1011.4 |
| 20260904063032 | 65 | 273 | 1.7 | 4.3 | 0.00 | 0.00 | 0.00 | 84 | 1011.3 |
| 20260904062532 | 65 | 283 | 2.6 | 4.3 | 0.00 | 0.00 | 0.00 | 84 | 1011.4 |
| 20260904062252 | 65 | 271 | 1.7 | 4.3 | 0.00 | 0.00 | 0.00 | 84 | 1011.3 |
| 20260904061532 | 65 | 277 | 1.7 | 4.3 | 0.00 | 0.00 | 0.00 | 84 | 1011.3 |
| 20260904061032 | 65 | 293 | 1.7 | 2.6 | 0.00 | 0.00 | 0.00 | 84 | 1011.3 |
| 20260904060533 | 65 | 290 | 0.9 | 4.3 | 0.00 | 0.00 | 0.00 | 84 | 1011.4 |
| 20260904060033 | 66 | 297 | 2.6 | 4.3 | 0.00 | 0.00 | 0.00 | 84 | 1011.5 |
| 20260904055750 | 66 | 276 | 1.7 | 4.3 | 0.00 | 0.00 | 0.00 | 84 | 1011.3 |
| 20260904055031 | 66 | 256 | 1.7 | 4.3 | 0.00 | 0.00 | 0.00 | 84 | 1011.4 |
| 20260904054531 | 66 | 296 | 2.6 | 4.3 | 0.00 | 0.00 | 0.00 | 84 | 1011.4 |
| 20260904054033 | 66 | 275 | 0.9 | 5.2 | 0.00 | 0.00 | 0.00 | 84 | 1011.3 |
| 20260904053532 | 66 | 289 | 3.5 | 5.2 | 0.00 | 0.00 | 0.00 | 84 | 1011.2 |
| 20260904053031 | 66 | 274 | 0.9 | 4.3 | 0.00 | 0.00 | 0.00 | 84 | 1011.3 |
| 20260904052031 | 66 | 277 | 0.0 | 4.3 | 0.00 | 0.00 | 0.00 | 84 | 1011.4 |
| 20260904051531 | 66 | 263 | 1.7 | 4.3 | 0.00 | 0.00 | 0.00 | 84 | 1011.4 |
| 20260904051031 | 66 | 291 | 1.7 | 4.3 | 0.00 | 0.00 | 0.00 | 84 | 1011.4 |
| 20260904050530 | 66 | 281 | 2.6 | 4.3 | 0.00 | 0.00 | 0.00 | 83 | 1011.3 |
| 20260904050032 | 66 | 316 | 3.5 | 4.3 | 0.00 | 0.00 | 0.00 | 83 | 1011.2 |
| 20260904045532 | 66 | 285 | 2.6 | 5.2 | 0.00 | 0.00 | 0.00 | 83 | 1011.3 |
| 20260904045030 | 66 | 269 | 1.7 | 5.2 | 0.00 | 0.00 | 0.00 | 83 | 1011.3 |
| 20260904044530 | 66 | 320 | 3.5 | 5.2 | 0.00 | 0.00 | 0.00 | 83 | 1011.3 |
| 20260904044031 | 66 | 272 | 2.6 | 5.2 | 0.00 | 0.00 | 0.00 | 83 | 1011.3 |
| 20260904043531 | 67 | 274 | 3.5 | 5.2 | 0.00 | 0.00 | 0.00 | 82 | 1011.3 |
| 20260904043029 | 67 | 328 | 3.5 | 5.2 | 0.00 | 0.00 | 0.00 | 82 | 1011.4 |
| 20260904042529 | 67 | 283 | 1.7 | 6.1 | 0.00 | 0.00 | 0.00 | 82 | 1011.4 |
| 20260904042247 | 67 | 319 | 4.3 | 7.0 | 0.00 | 0.00 | 0.00 | 82 | 1011.3 |
| 20260904041531 | 67 | 354 | 4.3 | 7.0 | 0.00 | 0.00 | 0.00 | 82 | 1011.3 |
| 20260904041029 | 67 | 343 | 5.2 | 7.0 | 0.00 | 0.00 | 0.00 | 82 | 1011.4 |
| 20260904040529 | 67 | 322 | 4.3 | 6.1 | 0.00 | 0.00 | 0.00 | 82 | 1011.2 |
| 20260904040029 | 67 | 316 | 6.1 | 6.1 | 0.00 | 0.00 | 0.00 | 82 | 1011.2 |
| 20260904035529 | 67 | 346 | 2.6 | 6.1 | 0.00 | 0.00 | 0.00 | 82 | 1011.2 |
| 20260904035029 | 67 | 264 | 1.7 | 5.2 | 0.00 | 0.00 | 0.00 | 82 | 1011.1 |
| 20260904034529 | 67 | 313 | 3.5 | 6.1 | 0.00 | 0.00 | 0.00 | 82 | 1011.1 |
| 20260904034029 | 67 | 328 | 2.6 | 6.1 | 0.00 | 0.00 | 0.00 | 82 | 1011.2 |
| 20260904033530 | 67 | 328 | 1.7 | 6.1 | 0.00 | 0.00 | 0.00 | 82 | 1011.1 |
| 20260904033030 | 67 | 296 | 2.6 | 6.1 | 0.00 | 0.00 | 0.00 | 82 | 1011.1 |
| 20260904032529 | 67 | 313 | 3.5 | 6.1 | 0.00 | 0.00 | 0.00 | 82 | 1011.1 |
| 20260904032248 | 67 | 358 | 4.3 | 6.1 | 0.00 | 0.00 | 0.00 | 81 | 1011.0 |
| 20260904031529 | 67 | 273 | 1.7 | 7.0 | 0.00 | 0.00 | 0.00 | 80 | 1010.9 |
| 20260904031250 | 67 | 349 | 4.3 | 7.0 | 0.00 | 0.00 | 0.00 | 81 | 1011.0 |
| 20260904030528 | 67 | 290 | 5.2 | 7.0 | 0.00 | 0.00 | 0.00 | 81 | 1010.9 |
| 20260904030028 | 67 | 276 | 3.5 | 7.0 | 0.00 | 0.00 | 0.00 | 80 | 1010.9 |
| 20260904025529 | 67 | 314 | 4.3 | 7.8 | 0.00 | 0.00 | 0.00 | 80 | 1010.8 |
| 20260904024527 | 67 | 335 | 4.3 | 7.8 | 0.00 | 0.00 | 0.00 | 80 | 1010.9 |
| 20260904024027 | 67 | 69 | 4.3 | 7.8 | 0.00 | 0.00 | 0.00 | 80 | 1010.8 |
| 20260904023529 | 67 | 339 | 5.2 | 7.8 | 0.00 | 0.00 | 0.00 | 80 | 1010.7 |
| 20260904023029 | 67 | 342 | 5.2 | 7.8 | 0.00 | 0.00 | 0.00 | 80 | 1010.8 |
| 20260904022747 | 67 | 317 | 2.6 | 7.0 | 0.00 | 0.00 | 0.00 | 80 | 1010.7 |
| 20260904022027 | 68 | 273 | 1.7 | 5.2 | 0.00 | 0.00 | 0.00 | 82 | 1010.7 |
| 20260904021528 | 68 | 289 | 1.7 | 6.1 | 0.00 | 0.00 | 0.00 | 82 | 1010.7 |
| 20260904021028 | 68 | 273 | 0.9 | 6.1 | 0.00 | 0.00 | 0.00 | 82 | 1010.7 |
| 20260904020526 | 69 | 283 | 1.7 | 6.1 | 0.00 | 0.00 | 0.00 | 82 | 1010.8 |
| 20260904020027 | 69 | 263 | 2.6 | 6.1 | 0.00 | 0.00 | 0.00 | 81 | 1010.8 |
| 20260904015527 | 69 | 271 | 2.6 | 6.1 | 0.00 | 0.00 | 0.00 | 80 | 1010.9 |
| 20260904015027 | 69 | 254 | 2.6 | 6.1 | 0.00 | 0.00 | 0.00 | 80 | 1010.9 |
| 20260904014526 | 70 | 322 | 0.9 | 6.1 | 0.00 | 0.00 | 0.00 | 79 | 1010.8 |
| 20260904014026 | 70 | 303 | 1.7 | 6.1 | 0.00 | 0.00 | 0.00 | 79 | 1010.9 |
| 20260904013527 | 70 | 314 | 2.6 | 5.2 | 0.00 | 0.00 | 0.00 | 78 | 1010.9 |
| 20260904013027 | 70 | 327 | 3.5 | 6.1 | 0.00 | 0.00 | 0.00 | 78 | 1011.0 |
| 20260904012526 | 71 | 277 | 0.9 | 6.1 | 0.00 | 0.00 | 0.00 | 77 | 1011.0 |
| 20260904012026 | 71 | 274 | 0.9 | 6.1 | 0.00 | 0.00 | 0.00 | 77 | 1011.0 |
| 20260904011749 | 71 | 276 | 0.0 | 6.1 | 0.00 | 0.00 | 0.00 | 77 | 1011.0 |
| 20260904011027 | 71 | 351 | 1.7 | 6.1 | 0.00 | 0.00 | 0.00 | 76 | 1011.0 |
| 20260904010525 | 71 | 296 | 2.6 | 5.2 | 0.00 | 0.00 | 0.00 | 75 | 1011.0 |
| 20260904005751 | 71 | 251 | 2.6 | 7.0 | 0.00 | 0.00 | 0.00 | 74 | 1011.0 |
| 20260904005026 | 70 | 254 | 1.7 | 7.0 | 0.00 | 0.00 | 0.00 | 76 | 1011.1 |
| 20260904004525 | 70 | 275 | 0.0 | 6.1 | 0.00 | 0.00 | 0.00 | 77 | 1011.0 |
| 20260904004025 | 70 | 269 | 3.5 | 8.7 | 0.00 | 0.00 | 0.00 | 77 | 1011.1 |
| 20260904003526 | 70 | 302 | 3.5 | 11.3 | 0.00 | 0.00 | 0.00 | 75 | 1011.0 |
| 20260904003248 | 70 | 332 | 2.6 | 11.3 | 0.00 | 0.00 | 0.00 | 76 | 1011.1 |
| 20260904002525 | 70 | 351 | 5.2 | 8.7 | 0.00 | 0.00 | 0.00 | 78 | 1010.9 |
| 20260904002240 | 71 | 301 | 6.1 | 8.7 | 0.00 | 0.00 | 0.00 | 78 | 1011.0 |
| 20260904001524 | 71 | 339 | 3.5 | 10.4 | 0.00 | 0.00 | 0.00 | 77 | 1011.0 |
| 20260904001025 | 71 | 3 | 2.6 | 10.4 | 0.00 | 0.00 | 0.00 | 77 | 1011.0 |
| 20260904000525 | 71 | 290 | 4.3 | 8.7 | 0.00 | 0.00 | 0.00 | 75 | 1011.0 |
| 20260904000024 | 71 | 330 | 1.7 | 7.8 | 0.00 | 0.00 | 0.00 | 76 | 1010.9 |
| 20260903235524 | 71 | 358 | 4.3 | 10.4 | 0.00 | 0.00 | 0.00 | 76 | 1011.0 |
| 20260903235025 | 71 | 294 | 4.3 | 10.4 | 0.00 | 0.00 | 0.00 | 75 | 1011.1 |
| 20260903234524 | 71 | 237 | 4.3 | 8.7 | 0.00 | 0.00 | 0.00 | 75 | 1011.1 |
| 20260903233523 | 72 | 322 | 3.5 | 13.0 | 0.00 | 0.00 | 0.00 | 75 | 1011.2 |
| 20260903233250 | 72 | 351 | 9.6 | 13.0 | 0.00 | 0.00 | 0.00 | 74 | 1011.1 |
| 20260903232525 | 72 | 343 | 9.6 | 13.9 | 0.00 | 0.00 | 0.00 | 74 | 1011.3 |
| 20260903232022 | 72 | 353 | 4.3 | 13.9 | 0.00 | 0.00 | 0.00 | 72 | 1011.3 |
| 20260903231523 | 72 | 281 | 6.1 | 10.4 | 0.00 | 0.00 | 0.00 | 73 | 1011.3 |
| 20260903231024 | 72 | 359 | 5.2 | 12.2 | 0.00 | 0.00 | 0.00 | 72 | 1011.3 |
| 20260903230523 | 72 | 282 | 3.5 | 12.2 | 0.00 | 0.00 | 0.00 | 71 | 1011.3 |
| 20260903230022 | 73 | 340 | 7.8 | 13.0 | 0.00 | 0.00 | 0.00 | 72 | 1011.3 |
| 20260903225522 | 73 | 353 | 7.8 | 13.0 | 0.00 | 0.00 | 0.00 | 73 | 1011.3 |
| 20260903225247 | 73 | 278 | 5.2 | 13.9 | 0.00 | 0.00 | 0.00 | 70 | 1011.4 |
| 20260903224523 | 73 | 5 | 1.7 | 13.9 | 0.00 | 0.00 | 0.00 | 70 | 1011.4 |
| 20260903224022 | 73 | 337 | 7.8 | 10.4 | 0.00 | 0.00 | 0.00 | 70 | 1011.4 |
| 20260903223522 | 73 | 253 | 3.5 | 10.4 | 0.00 | 0.00 | 0.00 | 69 | 1011.5 |
| 20260903223023 | 73 | 332 | 7.0 | 11.3 | 0.00 | 0.00 | 0.00 | 69 | 1011.6 |
| 20260903222523 | 73 | 303 | 3.5 | 11.3 | 0.00 | 0.00 | 0.00 | 70 | 1011.8 |
| 20260903222021 | 73 | 340 | 6.1 | 12.2 | 0.00 | 0.00 | 0.00 | 71 | 1011.7 |
| 20260903221740 | 73 | 4 | 4.3 | 12.2 | 0.00 | 0.00 | 0.00 | 71 | 1011.7 |
| 20260903221022 | 74 | 272 | 3.5 | 12.2 | 0.00 | 0.00 | 0.00 | 70 | 1011.7 |
| 20260903220522 | 74 | 353 | 5.2 | 11.3 | 0.00 | 0.00 | 0.00 | 73 | 1011.6 |
| 20260903220021 | 74 | 321 | 3.5 | 13.0 | 0.00 | 0.00 | 0.00 | 70 | 1011.7 |
| 20260903215521 | 74 | 354 | 7.8 | 13.0 | 0.00 | 0.00 | 0.00 | 72 | 1011.7 |
| 20260903215021 | 74 | 346 | 3.5 | 8.7 | 0.00 | 0.00 | 0.00 | 69 | 1011.7 |
| 20260903214522 | 74 | 328 | 0.9 | 13.9 | 0.00 | 0.00 | 0.00 | 69 | 1011.8 |
| 20260903214021 | 74 | 268 | 6.1 | 13.9 | 0.00 | 0.00 | 0.00 | 69 | 1011.9 |
| 20260903213520 | 74 | 291 | 2.6 | 13.0 | 0.00 | 0.00 | 0.00 | 66 | 1011.9 |
| 20260903213020 | 74 | 329 | 2.6 | 13.0 | 0.00 | 0.00 | 0.00 | 71 | 1011.9 |
| 20260903212522 | 75 | 14 | 5.2 | 10.4 | 0.00 | 0.00 | 0.00 | 71 | 1011.9 |
| 20260903212021 | 75 | 305 | 4.3 | 8.7 | 0.00 | 0.00 | 0.00 | 71 | 1011.9 |
| 20260903211520 | 75 | 257 | 3.5 | 7.0 | 0.00 | 0.00 | 0.00 | 66 | 1012.0 |
| 20260903211019 | 74 | 272 | 4.3 | 8.7 | 0.00 | 0.00 | 0.00 | 68 | 1012.0 |
| 20260903210521 | 74 | 266 | 2.6 | 8.7 | 0.00 | 0.00 | 0.00 | 68 | 1012.0 |
| 20260903210021 | 74 | 63 | 3.5 | 8.7 | 0.00 | 0.00 | 0.00 | 71 | 1012.1 |
| 20260903205520 | 74 | 245 | 7.0 | 7.8 | 0.00 | 0.00 | 0.00 | 64 | 1012.1 |
| 20260903205019 | 74 | 1 | 3.5 | 8.7 | 0.00 | 0.00 | 0.00 | 68 | 1012.1 |
| 20260903204744 | 74 | 355 | 3.5 | 8.7 | 0.00 | 0.00 | 0.00 | 67 | 1012.0 |
| 20260903204020 | 74 | 358 | 4.3 | 8.7 | 0.00 | 0.00 | 0.00 | 67 | 1012.0 |
| 20260903203519 | 74 | 280 | 3.5 | 11.3 | 0.00 | 0.00 | 0.00 | 67 | 1011.9 |
| 20260903203238 | 73 | 293 | 4.3 | 11.3 | 0.00 | 0.00 | 0.00 | 68 | 1011.9 |
| 20260903202747 | 73 | 318 | 6.1 | 10.4 | 0.00 | 0.00 | 0.00 | 69 | 1012.0 |
| 20260903202019 | 73 | 272 | 4.3 | 10.4 | 0.00 | 0.00 | 0.00 | 71 | 1012.1 |
| 20260903201740 | 73 | 335 | 7.0 | 8.7 | 0.00 | 0.00 | 0.00 | 69 | 1012.1 |
| 20260903201018 | 73 | 233 | 2.6 | 11.3 | 0.00 | 0.00 | 0.00 | 72 | 1012.2 |
| 20260903200519 | 74 | 256 | 4.3 | 11.3 | 0.00 | 0.00 | 0.00 | 73 | 1012.1 |
| 20260903200019 | 74 | 295 | 5.2 | 12.2 | 0.00 | 0.00 | 0.00 | 73 | 1012.1 |
| 20260903195742 | 74 | 265 | 5.2 | 12.2 | 0.00 | 0.00 | 0.00 | 72 | 1012.2 |
| 20260903195019 | 74 | 346 | 7.0 | 10.4 | 0.00 | 0.00 | 0.00 | 73 | 1012.2 |
| 20260903194519 | 74 | 266 | 4.3 | 10.4 | 0.00 | 0.00 | 0.00 | 72 | 1012.2 |
| 20260903194019 | 74 | 265 | 2.6 | 15.6 | 0.00 | 0.00 | 0.00 | 71 | 1012.3 |
| 20260903193518 | 74 | 325 | 3.5 | 15.6 | 0.00 | 0.00 | 0.00 | 72 | 1012.3 |
| 20260903193018 | 74 | 257 | 7.0 | 12.2 | 0.00 | 0.00 | 0.00 | 71 | 1012.2 |
| 20260903192519 | 74 | 330 | 5.2 | 12.2 | 0.00 | 0.00 | 0.00 | 72 | 1012.4 |
| 20260903192018 | 74 | 320 | 3.5 | 10.4 | 0.00 | 0.00 | 0.00 | 71 | 1012.4 |
| 20260903191518 | 74 | 296 | 4.3 | 8.7 | 0.00 | 0.00 | 0.00 | 71 | 1012.4 |
| 20260903191017 | 74 | 325 | 5.2 | 8.7 | 0.00 | 0.00 | 0.00 | 72 | 1012.5 |
| 20260903190517 | 74 | 266 | 6.1 | 13.9 | 0.00 | 0.00 | 0.00 | 71 | 1012.5 |
| 20260903190019 | 74 | 272 | 2.6 | 13.9 | 0.00 | 0.00 | 0.00 | 72 | 1012.6 |
| 20260903185744 | 74 | 267 | 5.2 | 13.0 | 0.00 | 0.00 | 0.00 | 71 | 1012.7 |
| 20260903185017 | 74 | 222 | 7.0 | 13.0 | 0.00 | 0.00 | 0.00 | 73 | 1012.7 |
| 20260903184517 | 74 | 350 | 4.3 | 12.2 | 0.00 | 0.00 | 0.00 | 71 | 1012.7 |
| 20260903184018 | 74 | 326 | 9.6 | 12.2 | 0.00 | 0.00 | 0.00 | 71 | 1012.9 |
| 20260903183517 | 74 | 323 | 7.0 | 10.4 | 0.00 | 0.00 | 0.00 | 71 | 1013.0 |
| 20260903183017 | 74 | 13 | 2.6 | 8.7 | 0.00 | 0.00 | 0.00 | 69 | 1013.0 |
| 20260903182516 | 75 | 313 | 2.6 | 10.4 | 0.00 | 0.00 | 0.00 | 70 | 1013.0 |
| 20260903182017 | 75 | 329 | 5.2 | 10.4 | 0.00 | 0.00 | 0.00 | 70 | 1013.1 |
| 20260903181517 | 75 | 338 | 8.7 | 10.4 | 0.00 | 0.00 | 0.00 | 70 | 1013.1 |
| 20260903181015 | 76 | 261 | 1.7 | 7.8 | 0.00 | 0.00 | 0.00 | 69 | 1013.1 |
| 20260903180516 | 76 | 285 | 4.3 | 8.7 | 0.00 | 0.00 | 0.00 | 68 | 1013.1 |
| 20260903180243 | 76 | 355 | 4.3 | 8.7 | 0.00 | 0.00 | 0.00 | 69 | 1013.0 |
| 20260903175517 | 76 | 334 | 2.6 | 5.2 | 0.00 | 0.00 | 0.00 | 66 | 1013.1 |
| 20260903175236 | 75 | 248 | 0.9 | 6.1 | 0.00 | 0.00 | 0.00 | 63 | 1013.2 |
| 20260903174516 | 75 | 228 | 2.6 | 6.1 | 0.00 | 0.00 | 0.00 | 64 | 1013.2 |
| 20260903174017 | 75 | 213 | 4.3 | 6.1 | 0.00 | 0.00 | 0.00 | 63 | 1013.2 |
| 20260903173517 | 74 | 311 | 0.9 | 5.2 | 0.00 | 0.00 | 0.00 | 64 | 1013.2 |
| 20260903173015 | 74 | 277 | 0.9 | 5.2 | 0.00 | 0.00 | 0.00 | 65 | 1013.2 |
| 20260903172737 | 74 | 267 | 1.7 | 5.2 | 0.00 | 0.00 | 0.00 | 65 | 1013.2 |
| 20260903172016 | 74 | 278 | 1.7 | 5.2 | 0.00 | 0.00 | 0.00 | 64 | 1013.2 |
| 20260903171516 | 73 | 253 | 0.0 | 4.3 | 0.00 | 0.00 | 0.00 | 65 | 1013.2 |
| 20260903171015 | 73 | 224 | 1.7 | 5.2 | 0.00 | 0.00 | 0.00 | 65 | 1013.2 |
| 20260903170736 | 73 | 284 | 1.7 | 5.2 | 0.00 | 0.00 | 0.00 | 67 | 1013.1 |
| 20260903170015 | 72 | 337 | 0.9 | 5.2 | 0.00 | 0.00 | 0.00 | 67 | 1013.2 |
| 20260903165738 | 72 | 338 | 0.0 | 5.2 | 0.00 | 0.00 | 0.00 | 69 | 1013.2 |
| 20260903165015 | 72 | 354 | 4.3 | 5.2 | 0.00 | 0.00 | 0.00 | 68 | 1013.1 |
| 20260903164735 | 72 | 4 | 1.7 | 4.3 | 0.00 | 0.00 | 0.00 | 69 | 1013.1 |
| 20260903164014 | 71 | 290 | 0.9 | 4.3 | 0.00 | 0.00 | 0.00 | 71 | 1013.1 |
| 20260903163515 | 71 | 29 | 2.6 | 4.3 | 0.00 | 0.00 | 0.00 | 69 | 1013.2 |
| 20260903163013 | 71 | 300 | 0.9 | 4.3 | 0.00 | 0.00 | 0.00 | 72 | 1013.2 |
| 20260903162514 | 71 | 294 | 0.9 | 2.6 | 0.00 | 0.00 | 0.00 | 71 | 1013.3 |
| 20260903162013 | 71 | 293 | 1.7 | 2.6 | 0.00 | 0.00 | 0.00 | 73 | 1013.3 |
| 20260903161514 | 71 | 289 | 1.7 | 2.6 | 0.00 | 0.00 | 0.00 | 73 | 1013.4 |
| 20260903161230 | 70 | 285 | 0.9 | 1.7 | 0.00 | 0.00 | 0.00 | 72 | 1013.5 |
| 20260903160732 | 70 | 286 | 0.0 | 1.7 | 0.00 | 0.00 | 0.00 | 72 | 1013.4 |
| 20260903160013 | 69 | 290 | 0.9 | 1.7 | 0.00 | 0.00 | 0.00 | 73 | 1013.4 |
| 20260903155736 | 68 | 295 | 0.9 | 2.6 | 0.00 | 0.00 | 0.00 | 73 | 1013.3 |
| 20260903155233 | 68 | 17 | 0.0 | 2.6 | 0.00 | 0.00 | 0.00 | 75 | 1013.4 |
| 20260903154737 | 67 | 300 | 0.0 | 2.6 | 0.00 | 0.00 | 0.00 | 75 | 1013.4 |
| 20260903154013 | 66 | 335 | 0.9 | 2.6 | 0.00 | 0.00 | 0.00 | 76 | 1013.4 |
| 20260903153514 | 66 | 343 | 0.9 | 2.6 | 0.00 | 0.00 | 0.00 | 77 | 1013.4 |
| 20260903153238 | 66 | 0 | 1.7 | 2.6 | 0.00 | 0.00 | 0.00 | 77 | 1013.4 |
| 20260903152513 | 65 | 347 | 0.9 | 4.3 | 0.00 | 0.00 | 0.00 | 78 | 1013.4 |
| 20260903152012 | 65 | 18 | 1.7 | 4.3 | 0.00 | 0.00 | 0.00 | 79 | 1013.4 |
| 20260903151735 | 65 | 32 | 1.7 | 4.3 | 0.00 | 0.00 | 0.00 | 79 | 1013.3 |
| 20260903151014 | 66 | 17 | 1.7 | 2.6 | 0.00 | 0.00 | 0.00 | 79 | 1013.4 |
| 20260903150731 | 66 | 332 | 0.9 | 4.3 | 0.00 | 0.00 | 0.00 | 80 | 1013.4 |
| 20260903150011 | 66 | 282 | 0.9 | 4.3 | 0.00 | 0.00 | 0.00 | 81 | 1013.4 |
| 20260903145513 | 66 | 7 | 1.7 | 2.6 | 0.00 | 0.00 | 0.00 | 80 | 1013.4 |
| 20260903145013 | 66 | 308 | 0.9 | 1.7 | 0.00 | 0.00 | 0.00 | 77 | 1013.3 |
| 20260903144512 | 65 | 266 | 0.0 | 1.7 | 0.00 | 0.00 | 0.00 | 78 | 1013.4 |
| 20260903144011 | 64 | 223 | 0.9 | 4.3 | 0.00 | 0.00 | 0.00 | 79 | 1013.3 |
| 20260903143512 | 64 | 255 | 0.0 | 4.3 | 0.00 | 0.00 | 0.00 | 80 | 1013.3 |
| 20260903143012 | 63 | 155 | 2.6 | 2.6 | 0.00 | 0.00 | 0.00 | 81 | 1013.2 |
| 20260903142511 | 63 | 221 | 1.7 | 2.6 | 0.00 | 0.00 | 0.00 | 82 | 1013.2 |
| 20260903142238 | 62 | 225 | 0.0 | 2.6 | 0.00 | 0.00 | 0.00 | 83 | 1013.3 |
| 20260903141736 | 62 | 318 | 1.7 | 2.6 | 0.00 | 0.00 | 0.00 | 85 | 1013.2 |
| 20260903141011 | 62 | 276 | 0.0 | 0.9 | 0.00 | 0.00 | 0.00 | 86 | 1013.1 |
| 20260903140510 | 62 | 277 | 0.0 | 0.0 | 0.00 | 0.00 | 0.00 | 86 | 1013.1 |
| 20260903140010 | 61 | 259 | 0.0 | 1.7 | 0.00 | 0.00 | 0.00 | 87 | 1013.1 |
| 20260903135511 | 61 | 261 | 0.0 | 2.6 | 0.00 | 0.00 | 0.00 | 87 | 1012.9 |
| 20260903135011 | 61 | 221 | 0.9 | 2.6 | 0.00 | 0.00 | 0.00 | 87 | 1012.9 |
| 20260903134510 | 61 | 178 | 1.7 | 2.6 | 0.00 | 0.00 | 0.00 | 88 | 1012.8 |
| 20260903134010 | 61 | 232 | 0.0 | 4.3 | 0.00 | 0.00 | 0.00 | 89 | 1012.8 |
| 20260903133510 | 61 | 278 | 0.0 | 4.3 | 0.00 | 0.00 | 0.00 | 89 | 1012.7 |
| 20260903133010 | 61 | 351 | 1.7 | 4.3 | 0.00 | 0.00 | 0.00 | 90 | 1012.7 |
| 20260903132510 | 61 | 289 | 0.0 | 0.0 | 0.00 | 0.00 | 0.00 | 90 | 1012.6 |
| 20260903132009 | 61 | 263 | 0.0 | 0.0 | 0.00 | 0.00 | 0.00 | 90 | 1012.6 |
| 20260903131509 | 61 | 258 | 0.0 | 1.7 | 0.00 | 0.00 | 0.00 | 90 | 1012.6 |
| 20260903131011 | 61 | 302 | 0.0 | 1.7 | 0.00 | 0.00 | 0.00 | 90 | 1012.6 |
| 20260903130510 | 61 | 260 | 0.0 | 0.0 | 0.00 | 0.00 | 0.00 | 90 | 1012.7 |
| 20260903130230 | 61 | 270 | 0.0 | 0.0 | 0.00 | 0.00 | 0.00 | 89 | 1012.6 |
| 20260903125729 | 61 | 235 | 0.0 | 0.0 | 0.00 | 0.00 | 0.00 | 90 | 1012.6 |
| 20260903125229 | 61 | 267 | 0.0 | 0.0 | 0.00 | 0.00 | 0.00 | 90 | 1012.6 |
| 20260903124510 | 61 | 254 | 0.0 | 0.0 | 0.00 | 0.00 | 0.00 | 89 | 1012.7 |
| 20260903124229 | 61 | 261 | 0.0 | 1.7 | 0.00 | 0.00 | 0.00 | 90 | 1012.7 |
| 20260903123508 | 61 | 258 | 0.0 | 1.7 | 0.00 | 0.00 | 0.00 | 90 | 1012.7 |
| 20260903123010 | 61 | 336 | 0.0 | 0.0 | 0.00 | 0.00 | 0.00 | 91 | 1012.7 |
| 20260903122509 | 61 | 268 | 0.0 | 0.9 | 0.00 | 0.00 | 0.00 | 90 | 1012.7 |
| 20260903122228 | 61 | 257 | 0.0 | 4.3 | 0.00 | 0.00 | 0.00 | 91 | 1012.6 |
| 20260903121730 | 62 | 277 | 0.0 | 4.3 | 0.00 | 0.00 | 0.00 | 91 | 1012.6 |
| 20260903121009 | 62 | 301 | 0.0 | 0.0 | 0.00 | 0.00 | 0.00 | 91 | 1012.5 |
| 20260903120509 | 62 | 257 | 0.0 | 0.0 | 0.00 | 0.00 | 0.00 | 91 | 1012.6 |
| 20260903120009 | 62 | 253 | 0.0 | 1.7 | 0.00 | 0.00 | 0.00 | 90 | 1012.6 |